Location: Unspecified
(0.0000°N, 0.0000°E)
Time: 19:33:03
(UTC+00:00)

ARIANE 2 DEB - Pass Details

Date: 06 March 2026
Orbit: 794 x 35760 km, 8.3° (Epoch: 17 April)

Event Time Altitude Azimuth Distance (km) Brightness Sun altitude
Rises 09:23:19 0° 259° (W) 5,527 ? 47.7°
Reaches altitude 10° 09:25:27 10° 257° (WSW) 5,131 ? 48.2°
Maximum altitude 16:15:13 86° 13° (NNE) 32,676 ? 28.9°
Enters shadow 19:28:52 22° 76° (ENE) 7,135 ? -19.3°
